AO-07 1 07530U 74089B 16168.18240897 -.00000030 00000-0 85907-4 0 9991 2 07530 101.5740 138.9628 0011732 314.9827 114.4945 12.53621762902992 FO-29 1 24278U 96046B 16168.20912267 -.00000048 00000-0 -11471-4 0 9991 2 24278 98.5856 93.5535 0349995 205.0141 153.3681 13.53067977979389 RS-22 1 27939U 03042A 16168.78803249 .00000125 00000-0 30989-4 0 9993 2 27939 97.8869 320.4785 0012101 310.5947 49.4215 14.66411266679769 HO-68 1 36122U 09072B 16168.67836881 -.00000059 00000-0 -43517-4 0 9991 2 36122 100.1418 204.5549 0007373 3.2275 356.8887 13.16334409312543 AO-73 1 39444U 13066AE 16168.14759806 .00000576 00000-0 78705-4 0 9991 2 39444 97.6810 221.6709 0059485 25.8036 334.6123 14.81074089137420 EO-79 1 40025U 14033R 16168.72275559 .00000598 00000-0 71201-4 0 9993 2 40025 97.9288 74.1838 0014137 68.1396 292.1322 14.88019882108139 XW-2A 1 40903U 15049E 16168.78901737 .00003719 00000-0 10655-3 0 9999 2 40903 97.4456 183.9342 0017122 132.2624 276.2495 15.36426586 41495 XW-2C 1 40906U 15049H 16168.86254955 .00001289 00000-0 75198-4 0 9998 2 40906 97.4521 175.9466 0016985 42.4077 77.9237 15.13599898 40951 LILACSAT-2 1 40908U 15049K 16168.61314576 .00000871 00000-0 53474-4 0 9998 2 40908 97.4584 175.6009 0017734 37.3941 106.7591 15.12550795 40897 XW-2E 1 40909U 15049L 16168.73635933 .00002583 00000-0 14317-3 0 9999 2 40909 97.4535 176.0781 0016410 46.3578 3.1603 15.14568780 40958 UO-11 1 14781U 84021B 16168.69648976 .00000194 00000-0 30376-4 0 9990 2 14781 97.7494 220.7158 0007537 325.0384 35.0334 14.82754048736181 LO-19 1 20442U 90005G 16168.36722634 .00000020 00000-0 23406-4 0 9992 2 20442 98.5434 103.3204 0012395 143.9145 216.2878 14.32819302379238 AO-27 1 22825U 93061C 16168.73512468 .00000017 00000-0 24156-4 0 9996 2 22825 98.7590 124.9785 0007760 326.2672 33.8015 14.29958418185176 IO-26 1 22826U 93061D 16167.87023001 .00000015 00000-0 23062-4 0 9994 2 22826 98.7534 124.2326 0008202 319.0372 41.0193 14.30283008185219 GO-32 1 25397U 98043D 16168.08641907 -.00000009 00000-0 14893-4 0 9996 2 25397 98.5668 113.0565 0001552 33.9072 326.2206 14.23596148931702 NO-44 1 26931U 01043C 16168.42875834 -.00000013 00000-0 26868-4 0 9991 2 26931 67.0517 314.8638 0006700 260.5457 99.4887 14.30411771768032 SO-50 1 27607U 02058C 16168.55503625 .00000117 00000-0 37541-4 0 9993 2 27607 64.5537 162.7750 0068257 217.2037 142.4326 14.75166384725171 CO-55 1 27844U 03031E 16167.97521842 .00000095 00000-0 62838-4 0 9996 2 27844 98.6920 176.2791 0009078 333.4522 26.6190 14.21955124672272 CO-57 1 27848U 03031J 16168.72181436 .00000089 00000-0 60365-4 0 9991 2 27848 98.7016 177.1066 0009132 340.0728 20.0092 14.21581259672274 CO-65 1 32785U 08021C 16168.69803729 .00000516 00000-0 62553-4 0 9999 2 32785 97.6027 202.9350 0011827 302.4735 57.5338 14.87576652440552 PRISM 1 33493U 09002B 16168.80302118 .00000478 00000-0 49559-4 0 9993 2 33493 98.2175 28.8804 0014546 203.4870 156.5704 14.94941695401173 TISAT-1 1 36799U 10035E 16168.85081533 .00000947 00000-0 10460-3 0 9992 2 36799 98.0304 279.1225 0014030 88.0435 272.2388 14.89826582321375 ALMASAT-1 1 38078U 12006B 16168.72285747 .00031604 35248-5 44451-3 0 9991 2 38078 69.4454 22.3093 0381403 102.7236 261.6809 15.02931772229517 DUCHIFAT-1 1 40021U 14033M 16168.67856082 .00000965 00000-0 10767-3 0 9996 2 40021 97.9319 75.2161 0014765 66.5966 293.6802 14.89315861108184 NANOSATCBR1 1 40024U 14033Q 16168.72643025 .00000785 00000-0 89906-4 0 9998 2 40024 97.9293 74.6641 0013988 66.6395 293.6291 14.88724324108164 DTUSAT-2 1 40030U 14033W 16168.70406251 .00000627 00000-0 74934-4 0 9991 2 40030 97.9266 73.6177 0013511 62.6956 297.5634 14.87652780108108 ANTELSAT 1 40034U 14033AA 16168.68702210 .00000450 00000-0 75220-4 0 9999 2 40034 97.9035 56.9954 0060382 28.8012 331.6508 14.73394232107107 MET-2/21 1 22782U 93055A 16168.88726020 .00000042 00000-0 24110-4 0 9996 2 22782 82.5489 313.4671 0022765 18.9226 91.4622 13.83789179151179 NOAA-15 1 25338U 98030A 16168.38056828 .00000119 00000-0 69154-4 0 9993 2 25338 98.7825 172.5284 0010525 182.0426 178.0712 14.25733610940873 NOAA-18 1 28654U 05018A 16168.35415473 .00000017 00000-0 34626-4 0 9996 2 28654 99.1968 175.2637 0014697 21.7782 338.4011 14.12288507570611 NOAA-19 1 33591U 09005A 16168.37902129 .00000118 00000-0 88949-4 0 9992 2 33591 99.0398 125.1451 0013207 218.1405 141.8832 14.12081343379029 HUBBLE 1 20580U 90037B 16167.72194414 .00000821 00000-0 40256-4 0 9999 2 20580 28.4698 268.3968 0002704 188.0579 299.1695 15.08395131234890 ISS 1 25544U 98067A 16168.96381800 .00006480 00000-0 10329-3 0 9993 2 25544 51.6441 59.1414 0000071 298.8177 154.1537 15.54590921 4952 CO-58 1 28895U 05043F 16168.41193016 .00000298 00000-0 66388-4 0 9995 2 28895 97.8323 342.3875 0016009 217.3223 142.6869 14.63205143566994 CAPE1 1 31130U 07012P 16168.57584864 .00000227 00000-0 59194-4 0 9990 2 31130 98.0327 124.0556 0095179 257.9132 101.1389 14.55938226486042 AAUSAT2 1 32788U 08021F 16168.10431354 .00000752 00000-0 77135-4 0 9993 2 32788 97.6035 211.0122 0010500 274.4214 85.5807 14.93226444441033 DO-64 1 32789U 08021G 16167.79826278 .00002297 00000-0 17388-3 0 9990 2 32789 97.6043 227.0490 0011970 265.6658 94.3200 15.03237491441798 CO-66 1 32791U 08021J 16168.04719029 .00000761 00000-0 84795-4 0 9998 2 32791 97.6035 205.4694 0012068 292.5276 67.4665 14.89777645440622 RS-30 1 32953U 08025A 16168.55945419 .00000010 00000-0 -13620-7 0 9992 2 32953 82.5026 107.0440 0019756 7.0487 353.0866 12.43069994366000 JUGNU 1 37839U 11058B 16167.39796148 .00000330 00000-0 33976-4 0 9991 2 37839 19.9597 154.4149 0019232 100.2501 52.7591 14.12543768241777 SRMSAT 1 37841U 11058D 16168.34865269 .00000320 00000-0 30735-4 0 9990 2 37841 19.9703 182.8196 0011964 23.8556 108.9221 14.10542394241563 AO-71 1 37854U 11061E 16168.37076957 .00003873 00000-0 21989-3 0 9995 2 37854 101.7046 210.5569 0173645 76.3703 285.6778 15.02218040251978 HRBE 1 37855U 11061F 16168.38963804 .00004434 00000-0 24611-3 0 9992 2 37855 101.7174 208.6538 0186599 80.4693 281.7549 15.01134180251874 HORYU-2 1 38340U 12025D 16168.42578331 .00000516 00000-0 84765-4 0 9999 2 38340 98.3546 153.9545 0012238 21.5940 338.5782 14.75036852219362 RS-40 1 38735U 12041C 16168.58087319 .00000040 00000-0 21992-3 0 9997 2 38735 82.4746 192.1447 0018268 103.3183 256.9931 12.42573121176299 BEESAT-3 1 39134U 13015E 16168.71960639 .00002838 00000-0 15699-3 0 9997 2 39134 64.8714 324.4221 0008887 281.1164 78.8962 15.15984612174042 BEESAT-2 1 39136U 13015G 16168.59462539 .00001775 00000-0 98059-4 0 9992 2 39136 64.8728 330.8535 0008189 283.0267 77.0451 15.13646752173915 ZACUBE-1 1 39417U 13066B 16168.73776970 .00000490 00000-0 68935-4 0 9996 2 39417 97.6799 221.6293 0060263 25.7667 334.6526 14.80405019138708 TRITON-1 1 39427U 13066M 16168.06650387 .00000481 00000-0 85011-4 0 9990 2 39427 97.6672 201.4392 0116334 81.1063 280.3292 14.67195654137355 GOMX-1 1 39430U 13066Q 16168.70633014 .00000407 00000-0 82847-4 0 9995 2 39430 97.6696 189.6894 0153767 116.7263 244.9754 14.58600613136654 LO-74 1 39440U 13066AA 16167.79444007 .00000474 00000-0 73644-4 0 9995 2 39440 97.6736 212.9435 0082291 48.9868 311.8419 14.75165436138079 SPROUT 1 39770U 14029E 16168.08509407 .00001041 00000-0 12707-3 0 9993 2 39770 97.8713 265.3262 0011035 88.5774 271.6708 14.85399552111777 EO-80 1 40032U 14033Y 16168.79740394 .00000582 00000-0 70140-4 0 9996 2 40032 97.9274 73.7204 0013472 62.6731 297.5855 14.87586155108116 VELOX-1 1 40057U 14034E 16168.79292984 .00000579 00000-0 90352-4 0 9994 2 40057 98.1939 257.5864 0011894 142.8126 217.3902 14.76716668105823 DAURIA DX 1 1 40071U 14037C 16168.73414562 .00000237 00000-0 38106-4 0 9995 2 40071 98.3312 259.6230 0009110 139.4597 220.7298 14.80822599104885 UKUBE-1 1 40074U 14037F 16168.73872643 .00000610 00000-0 82106-4 0 9990 2 40074 98.3358 261.7603 0005340 136.2618 223.9025 14.83084126105003 HODOYOSHI-1 1 40299U 14070B 16168.74212405 .00001430 00000-0 66890-4 0 9994 2 40299 97.4294 250.6267 0012024 297.0198 179.2291 15.21331449 89364 CHUBUSAT-1 1 40300U 14070C 16168.75520840 .00001532 00000-0 74383-4 0 9992 2 40300 97.4252 248.8709 0019814 303.1500 172.2376 15.19840831 89264 QSAT-EOS 1 40301U 14070D 16168.77443458 .00002720 00000-0 12426-3 0 9993 2 40301 97.4194 248.2236 0027807 301.2105 172.6187 15.21109633 89243 FIREBIRD FU3 1 40377U 15003B 16168.80460116 .00005865 00000-0 26455-3 0 9997 2 40377 99.0859 275.5534 0144974 130.9049 230.4839 15.12543860 75724 FIREBIRD FU4 1 40378U 15003C 16168.86715010 .00006137 00000-0 27629-3 0 9997 2 40378 99.0861 275.6421 0145170 130.6507 230.7446 15.12555964 75735 GRIFEX 1 40379U 15003D 16168.86885102 .00004503 00000-0 21247-3 0 9993 2 40379 99.0868 274.8008 0149163 134.1981 227.1612 15.10781540 75684 NO-84 1 40654U 15025D 16168.17514721 .00018003 00000-0 37433-3 0 01472 2 40654 054.9984 062.9947 0211000 071.1014 291.2756 15.25445665023881 NO-83 1 40655U 15025E 16168.15639429 .00025077 00000-0 47710-3 0 01630 2 40655 054.9845 056.7651 0193216 073.5523 288.6660 15.30353078023943 DEORBITSAIL 1 40719U 15032E 16168.67906316 .00000808 00000-0 12591-3 0 9999 2 40719 98.0176 60.3158 0015280 236.5844 123.3904 14.75552198 50414 NUDT-PHONESAT 1 40900U 15049B 16168.77740095 .00003982 00000-0 20499-3 0 9992 2 40900 97.4447 176.5099 0016968 60.7043 351.5642 15.16864686 41010 XW-2D 1 40907U 15049J 16168.33572438 .00001491 00000-0 86309-4 0 9991 2 40907 97.4490 175.3086 0016445 42.6316 82.1792 15.13640976 40877 XW-2F 1 40910U 15049M 16168.68685064 .00002452 00000-0 13779-3 0 9991 2 40910 97.4525 175.8378 0017624 40.3451 11.5718 15.14101562 40827 XW-2B 1 40911U 15049N 16168.60361104 .00001371 00000-0 79715-4 0 9992 2 40911 97.4537 175.7428 0016256 42.0104 104.4086 15.13624292 40818 DCBB 1 40912U 15049P 16168.69552091 .00002733 00000-0 14509-3 0 9991 2 40912 97.4527 176.6143 0017633 37.8710 52.2651 15.16044579 40889 TW-1C 1 40926U 15051B 16168.74320740 .00009473 00000-0 26715-3 0 9999 2 40926 97.2755 205.6648 0015646 55.8943 37.0628 15.36497674 40692 TW-1A 1 40928U 15051D 16168.81794756 .00004485 00000-0 14136-3 0 9993 2 40928 97.2701 204.9097 0015930 70.7452 15.8915 15.33283923 40669 IO-86 1 40931U 15052B 16168.40358851 .00000628 00000-0 -14962-5 0 9990 2 40931 5.9989 320.6849 0013067 107.9615 252.1922 14.76463418 38814 GomX-3 1 40949U 98067HA 16168.86445308 .00042480 00000-0 23398-3 0 9992 2 40949 51.6317 36.0253 0003663 202.9894 157.0944 15.79243122 40013 LQSat 1 40958U 15057A 16168.76787641 .00000115 00000-0 25754-4 0 9996 2 40958 98.0140 243.6679 0018785 151.6635 208.5603 14.72872404 37321 AO-85 1 40967U 15058D 16168.17336211 .00000762 00000-0 98997-4 0 01624 2 40967 064.7771 248.9087 0204274 205.7385 153.3465 14.75034673023122 ATHENOXAT-1 1 41168U 15077C 16168.71326179 .00002774 00000-0 12597-3 0 9995 2 41168 14.9852 316.2199 0012869 354.2922 115.2460 15.09977940 27688 ChubuSat-2 1 41338U 16012B 16168.65390074 .00000579 00000-0 39271-4 0 9992 2 41338 31.0047 273.2197 0013931 41.5388 318.6305 14.99395681 18070 ChubuSat-3 1 41339U 16012C 16168.70163279 .00000574 00000-0 38685-4 0 9997 2 41339 31.0113 272.6783 0013729 47.5133 312.6658 14.99624917 18058 Horyu-4 1 41340U 16012D 16167.67519951 .00000894 00000-0 63339-4 0 9995 2 41340 31.0071 278.7529 0014341 42.4231 317.7511 15.00033055 17921 OUFTI-1 1 41458U 16025C 16167.88438511 .00004343 00000-0 24543-3 0 9990 2 41458 098.2114 178.3004 0178936 072.2477 289.8184 15.01049625007599 e-st@r-II 1 41459U 16025D 16168.48403334 .00004220 00000-0 23869-3 0 9997 2 41459 98.2120 178.9354 0178895 70.2748 291.7681 15.01049765 7672 AAUSAT4 1 41460U 16025E 16168.68150261 .00005972 00000-0 33503-3 0 9990 2 41460 98.2108 179.1502 0178155 69.6914 292.3352 15.01209479 7700 MinXSS 1 41474U 98067HU 16168.86714326 .00031225 00000-0 43069-3 0 9997 2 41474 51.6446 59.2870 0003250 123.3837 312.1221 15.56912270 4886 CADRE 1 41475U 98067HV 16168.72464260 .00039415 00000-0 52730-3 0 9996 2 41475 51.6438 59.9167 0003469 147.4321 248.2962 15.57617161 4862 STMSat 1 1 41476U 98067HW 16168.73140451 .00027134 00000-0 37487-3 0 9998 2 41476 51.6439 59.9616 0003081 127.5605 269.6467 15.56947262 4771 NODES 1 1 41477U 98067HX 16168.87101373 .00019918 00000-0 28151-3 0 9993 2 41477 51.6433 59.3130 0003555 133.2735 302.7269 15.56529755 4799 NODES 2 1 41478U 98067HY 16168.87149064 .00019450 00000-0 27540-3 0 9995 2 41478 51.6444 59.3148 0003240 124.3471 311.6752 15.56498549 4792 NuSat1-LUSEX 1 41557U 16033B 16168.78442459 .00002714 00000-0 11048-3 0 9991 2 41557 97.4984 241.9261 0013650 210.1098 267.7278 15.25306922 2697 NuSat2 1 41558U 16033C 16168.78570334 .00002681 00000-0 10965-3 0 9996 2 41558 97.5004 241.9288 0013189 207.9313 267.9782 15.25166000 2695 /EX